Location: Gull Harbor
(47.1000°N, 122.9000°W)
Time: 23:14:15
(UTC-07:00)

Tiangong 1 - Visible Passes

Search period start: 30 April 2017 00:00
Search period end: 10 May 2017 00:00
Orbit: 329 x 351 km, 42.8° (Epoch: 29 April)

Date Brightness Start Highest point End Pass type
(mag) Time Alt. Az. Time Alt. Az. Time Alt. Az.
02 May 3.3 21:34:08 10° S 21:34:09 10° S 21:34:09 10° S visible
03 May 2.6 21:54:22 10° SSW 21:55:46 18° S 21:55:46 18° S visible
04 May 2.4 22:15:24 10° SW 22:16:59 23° SSW 22:16:59 23° SSW visible
05 May 2.3 21:01:44 10° SW 21:03:58 21° SSE 21:06:12 10° ESE visible
05 May 2.8 22:36:41 10° WSW 22:37:53 20° SW 22:37:53 20° SW visible
06 May 1.8 21:22:41 10° SW 21:25:14 29° S 21:27:14 14° ESE visible
06 May 3.5 22:58:04 10° WSW 22:58:32 13° WSW 22:58:32 13° WSW visible
07 May 1.6 21:43:52 10° WSW 21:46:29 33° S 21:47:43 22° SE visible
08 May 1.8 22:05:09 10° WSW 22:07:42 29° S 22:08:03 28° S visible
09 May 2.7 22:26:34 10° WSW 22:28:16 19° SW 22:28:16 19° SW visible
